FENGYUN 1C DEB

Satellite information

Favourite Embed

Satellite Type and Status

DEBRISIN ORBIT

Key statistics

Satellite FENGYUN 1C DEB at a glance.

Uptime

9715

Days in orbit

Revolutions

≈ 14.9

Per day

Orbit

SSO

Sun Synchronous Orbit

Inclination

98.9

Latest

Satellite identification and parameters

Extended collection of information and parameters for FENGYUN 1C DEB.

Object identification

Identified? True

Debris? True

Object name: FENGYUN 1C DEB

International designator: 1999-025RK

Object number (NORAD): 30106

Object ID (CCSDS): 30106

Country: PEOPLES REPUBLIC OF CHINA (PRC)

Current information (Y/N): Y

RCS size: SMALL

Orbital parameters

Period: 96.959 minutes

Inclination: 98.9229 deg

SMA: 6991.229 km

Apoapsis: 646.064 km

Periapsis: 580.123 km

RAAN: 254.0978 deg

Eccentricy: 0.00471596

Argument of periapsis: 197.7791 deg

Mean anomaly: 231.5122 deg

Mean motion: 14.85157411 rev/day

Mean motion (dot): 0.00051893 rev/day2

B* drag term: 0.0059076455 1/REarth

Two-line elements (TLE)

Creation date: Dec. 13, 2025, 4:32 a.m.

Reference frame: TEME

Reference center: EARTH

Epoch: Dec. 12, 2025, 6:05 p.m. UTC

TLE line 0: 0 FENGYUN 1C DEB

TLE line 1: 1 30106U 99025RK 25346.75401992 .00051893 00000-0 59076-2 0 9997

TLE line 2: 2 30106 98.9229 254.0978 0047160 197.7791 231.5122 14.85157411985459

Live tracking on map

Real-time ground track for satellite FENGYUN 1C DEB.

In-orbit conjunctions

A list of the most updated potential collisions computed for object FENGYUN 1C DEB.

Target Orbit TCA Probability of collision Miss distance Type
THOR ABLESTAR DEB LEO 2024-09-26 20:10:58 0.0001033798 714.0 (m) DEBRIS
DELTA 1 DEB SSO 2024-06-27 12:39:47 0.0001092166 208.0 (m) DEBRIS
SL-8 R/B LEO 2024-06-01 04:00:56 0.0003868231 114.0 (m) ROCKET BODY

Associated space launch

Chinese polar orbiting meteorological satellite

FENGYUN 1C DEB was lifted into orbit during the mission ‘Long March 4B | Feng Yun 1C’, on board a Long March 4B space rocket.

The launch took place on May 10, 1999, 1:33 a.m. from Launch Complex 7.

For more information about the launch, click the button.

Launch to space Long March 4B | Feng Yun 1C
Long March 4B | Feng Yun 1C

Agency: N/A

Status: Launch Successful

Launch date: May 10, 1999, 1:33 a.m. UTC

Rocket: Long March 4B

Launch pad: Launch Complex 7

Location: Taiyuan Satellite Launch Center, People's Republic of China

...

Latest news about this satellite

There are no fresh news available about this satellite. Check back as we update our databases every day.


Newsletter sign-up

Weekly statistics, charts and insights to help you stay on top of the space industry.